Location: Bari
(41.1330°N, 16.8500°E)
Time: 02:44:20
(UTC+02:00)

ISS - Pass Details

Date: 14 May 2021
Orbit: 417 x 422 km, 51.6° (Epoch: 14 June)

Event Time Altitude Azimuth Distance (km) Brightness Sun altitude
Rises 21:11:50 0° 209° (SSW) 2,346 -0.1 -11.8°
Reaches altitude 10° 21:14:04 10° 197° (SSW) 1,488 -1.2 -12.1°
Maximum altitude 21:17:01 29° 135° (SE) 796 -2.9 -12.5°
Drops below altitude 10° 21:19:59 10° 74° (ENE) 1,500 -1.3 -13.0°
Enters shadow 21:21:22 - 66° (ENE) 2,023 -0.5 -13.2°
